Bookmark and Share
Track history (hours):
 

OOCL Kaohsiung

Last reported at 2014-Apr-23 08:33 UTC. Time now 2014-Apr-24 06:14 UTC.
Position N 34°10' W 076°19'.

Length 280 m; draft 12 m.

Type: Cargo ship. MMSI: 566389000.

NotesDate/timePositionNaut miles runAvg speedWind from/ knotsBaromVisibWave heightAir tempDewpointWater temp
2014-Apr-23 08:33N 34°10' W 076°19'2019.1
2014-Apr-23 07:31N 34°23' W 076°01'2519.5
2014-Apr-23 06:14N 34°40' W 075°38'1319.9
2014-Apr-23 05:34N 34°49' W 075°27'134 7.0
2014-Apr-22 10:27N 36°56' W 076°20'0 0.0
2014-Apr-22 08:14N 36°56' W 076°20'0 0.0
2014-Apr-22 07:33N 36°56' W 076°20'0 0.0
2014-Apr-22 05:16N 36°56' W 076°20'0 0.0
2014-Apr-22 03:34N 36°56' W 076°20'0 0.0
2014-Apr-22 02:34N 36°56' W 076°20'0 0.0
2014-Apr-22 01:33N 36°56' W 076°20'0 0.0
2014-Apr-21 22:16N 36°56' W 076°20'0 0.0
2014-Apr-21 20:16N 36°56' W 076°20'0 0.0
2014-Apr-21 19:29N 36°56' W 076°20'0 0.0
2014-Apr-21 13:17N 36°56' W 076°20'0 0.0
2014-Apr-21 12:33N 36°56' W 076°20'0 0.0
2014-Apr-21 11:33N 36°56' W 076°20'0 0.0
2014-Apr-21 10:33N 36°56' W 076°20'1 1.4
2014-Apr-21 09:33N 36°57' W 076°20'1110.5
2014-Apr-21 08:33N 36°59' W 076°07'1010.3
2014-Apr-21 07:33N 36°55' W 075°55'8 7.6
2014-Apr-21 06:34N 36°50' W 075°48'10 7.7
2014-Apr-21 05:14N 36°49' W 075°35'2 2.6
2014-Apr-21 04:26N 36°48' W 075°33'2 1.9
2014-Apr-21 03:16N 36°50' W 075°30'17911.1
2014-Apr-20 11:09N 39°31' W 073°53'915.7
2014-Apr-20 10:33N 39°41' W 073°52'1515.6
2014-Apr-20 09:34N 39°56' W 073°49'1413.7
2014-Apr-20 08:31N 40°10' W 073°50'10 9.5
2014-Apr-20 07:31N 40°20' W 073°49'8 8.7
2014-Apr-20 06:33N 40°28' W 073°51'1110.7
2014-Apr-20 05:34N 40°35' W 074°02'6 5.6
2014-Apr-20 04:33N 40°40' W 074°04'1 0.6
2014-Apr-20 03:33N 40°40' W 074°05'0 0.0
2014-Apr-20 02:33N 40°40' W 074°05'0 0.0
2014-Apr-20 01:33N 40°40' W 074°05'0 0.0
2014-Apr-20 00:33N 40°40' W 074°05'0 0.0
2014-Apr-19 23:33N 40°40' W 074°05'0 0.0
2014-Apr-19 22:33N 40°40' W 074°05'0 0.0
2014-Apr-19 21:33N 40°40' W 074°05'0 0.0
2014-Apr-19 20:33N 40°40' W 074°05'0 0.0
2014-Apr-19 19:33N 40°40' W 074°05'0 0.0
2014-Apr-19 18:33N 40°40' W 074°05'0 0.0
2014-Apr-19 17:33N 40°40' W 074°05'0 0.0
2014-Apr-19 16:33N 40°40' W 074°05'0 0.0
2014-Apr-19 15:33N 40°40' W 074°05'0 0.0
2014-Apr-19 14:33N 40°40' W 074°05'0 0.0
2014-Apr-19 13:33N 40°40' W 074°05'0 0.0
2014-Apr-19 12:34N 40°40' W 074°05'0 0.0
2014-Apr-19 11:33N 40°40' W 074°05'0 0.0
2014-Apr-19 10:33N 40°40' W 074°05'0 0.0
2014-Apr-19 09:33N 40°40' W 074°05'0 0.0
2014-Apr-19 08:33N 40°40' W 074°05'0 0.0
2014-Apr-19 07:33N 40°40' W 074°05'0 0.0
2014-Apr-19 06:33N 40°40' W 074°05'0 0.0
2014-Apr-19 05:33N 40°40' W 074°05'0 0.0
2014-Apr-19 04:33N 40°40' W 074°05'0 0.0
2014-Apr-19 03:33N 40°40' W 074°05'0 0.0
2014-Apr-19 02:33N 40°40' W 074°05'0 0.0
2014-Apr-19 01:33N 40°40' W 074°05'0 0.0
2014-Apr-19 00:33N 40°40' W 074°05'0 0.0
2014-Apr-18 23:33N 40°40' W 074°05'4 3.7
2014-Apr-18 22:33N 40°37' W 074°03'1010.4
2014-Apr-18 21:33N 40°29' W 073°54'9 8.1
2014-Apr-18 20:27N 40°27' W 073°42'9 9.2
2014-Apr-18 19:31N 40°28' W 073°31'1010.6
2014-Apr-18 18:33N 40°29' W 073°18'1712.8
2014-Apr-18 17:13N 40°31' W 072°55'913.0
2014-Apr-18 16:33N 40°31' W 072°44'8 7.7
2014-Apr-18 15:33N 40°31' W 072°34'8 7.6
2014-Apr-18 14:34N 40°30' W 072°24'1616.4
2014-Apr-18 13:34N 40°31' W 072°03'1716.5
2014-Apr-18 12:34N 40°32' W 071°41'1716.6
2014-Apr-18 11:33N 40°33' W 071°19'1716.8
2014-Apr-18 10:34N 40°33' W 070°57'1716.8
2014-Apr-18 09:34N 40°33' W 070°35'1716.9
2014-Apr-18 08:34N 40°33' W 070°13'1716.9
2014-Apr-18 07:34N 40°33' W 069°50'1816.3
2014-Apr-18 06:28N 40°34' W 069°27'  

Dump ship's entire track history

sailing weather and tide predictions

OOCL Kaohsiung — 9V9830 — position and weather